DLH192 EDDM-EDDF

Flight info

Callsign DLH192
Flight time 0h 41m
Altitude 24000
Route GIVMI6E GIVMI Y101 ERNAS T161 DEBHI DEBHI1B
Aircraft A20N/M-SDE2E3FGHIRWXY/LB1

Departure

Time 2026-05-04 13:54
Airport Munich Airport (EDDM)

Arrival

Time 2026-05-04 14:35
Airport Frankfurt Main Airport (EDDF)
Time Latitude Longitude Altitude Speed Heading
2026-05-04 13:07 48.35354 11.79324 1468 ft 0 kts 263°
2026-05-04 13:35 48.35354 11.79325 1468 ft 0 kts 264°
2026-05-04 13:35 48.35357 11.79354 1468 ft 2 kts 264°
2026-05-04 13:35 48.35359 11.79386 1467 ft 3 kts 264°
2026-05-04 13:36 48.35362 11.79429 1466 ft 4 kts 265°
2026-05-04 13:36 48.35362 11.79441 1466 ft 0 kts 265°
2026-05-04 13:36 48.35363 11.79454 1466 ft 1 kts 265°
2026-05-04 13:36 48.35364 11.79476 1466 ft 2 kts 265°
2026-05-04 13:37 48.35365 11.79484 1466 ft 0 kts 265°
2026-05-04 13:37 48.35363 11.79455 1466 ft 0 kts 265°
2026-05-04 13:37 48.35363 11.79464 1466 ft 3 kts 266°
2026-05-04 13:37 48.35365 11.79490 1466 ft 3 kts 265°
2026-05-04 13:38 48.35365 11.79506 1466 ft 0 kts 266°
2026-05-04 13:41 48.35363 11.79495 1466 ft 1 kts 246°
2026-05-04 13:41 48.35348 11.79477 1465 ft 3 kts 203°
2026-05-04 13:42 48.35292 11.79481 1466 ft 4 kts 174°
2026-05-04 13:42 48.35263 11.79486 1467 ft 4 kts 173°
2026-05-04 13:42 48.35199 11.79497 1468 ft 12 kts 173°
2026-05-04 13:42 48.35111 11.79513 1468 ft 13 kts 173°
2026-05-04 13:43 48.35017 11.79529 1468 ft 14 kts 173°
2026-05-04 13:43 48.34918 11.79547 1468 ft 14 kts 174°
2026-05-04 13:43 48.34817 11.79545 1468 ft 14 kts 207°
2026-05-04 13:43 48.34781 11.79418 1471 ft 12 kts 262°
2026-05-04 13:44 48.34769 11.79286 1472 ft 13 kts 262°
2026-05-04 13:44 48.34759 11.79153 1473 ft 12 kts 264°
2026-05-04 13:44 48.34747 11.79033 1475 ft 11 kts 261°
2026-05-04 13:44 48.34737 11.78916 1476 ft 10 kts 263°
2026-05-04 13:45 48.34728 11.78801 1476 ft 11 kts 264°
2026-05-04 13:45 48.34719 11.78673 1476 ft 12 kts 264°
2026-05-04 13:45 48.34710 11.78531 1475 ft 14 kts 265°
2026-05-04 13:45 48.34701 11.78373 1472 ft 16 kts 265°
2026-05-04 13:46 48.34688 11.78197 1472 ft 17 kts 262°
2026-05-04 13:46 48.34672 11.78019 1472 ft 17 kts 263°
2026-05-04 13:46 48.34659 11.77840 1472 ft 17 kts 265°
2026-05-04 13:46 48.34646 11.77672 1475 ft 15 kts 260°
2026-05-04 13:47 48.34627 11.77513 1475 ft 15 kts 262°
2026-05-04 13:47 48.34618 11.77348 1475 ft 16 kts 266°
2026-05-04 13:47 48.34610 11.77180 1475 ft 16 kts 264°
2026-05-04 13:47 48.34603 11.77089 1475 ft 16 kts 263°
2026-05-04 13:48 48.34592 11.76959 1475 ft 16 kts 263°
2026-05-04 13:48 48.34583 11.76849 1476 ft 15 kts 262°
2026-05-04 13:48 48.34571 11.76685 1477 ft 15 kts 264°
2026-05-04 13:48 48.34559 11.76528 1480 ft 14 kts 264°
2026-05-04 13:49 48.34549 11.76389 1481 ft 13 kts 264°
2026-05-04 13:49 48.34539 11.76251 1483 ft 12 kts 263°
2026-05-04 13:49 48.34530 11.76126 1485 ft 11 kts 264°
2026-05-04 13:49 48.34519 11.75998 1485 ft 12 kts 260°
2026-05-04 13:50 48.34506 11.75864 1485 ft 13 kts 263°
2026-05-04 13:50 48.34496 11.75723 1485 ft 13 kts 265°
2026-05-04 13:50 48.34488 11.75575 1485 ft 14 kts 264°
2026-05-04 13:50 48.34475 11.75429 1487 ft 12 kts 263°
2026-05-04 13:51 48.34465 11.75313 1491 ft 10 kts 261°
2026-05-04 13:51 48.34427 11.75222 1490 ft 11 kts 194°
2026-05-04 13:51 48.34338 11.75231 1488 ft 13 kts 173°
2026-05-04 13:51 48.34272 11.75243 1487 ft 3 kts 173°
2026-05-04 13:52 48.34191 11.75259 1485 ft 8 kts 172°
2026-05-04 13:52 48.34126 11.75278 1485 ft 10 kts 155°
2026-05-04 13:52 48.34090 11.75367 1485 ft 10 kts 91°
2026-05-04 13:53 48.34096 11.75511 1485 ft 26 kts 85°
2026-05-04 13:53 48.34150 11.76186 1485 ft 101 kts 84°
2026-05-04 13:53 48.34254 11.77553 1478 ft 160 kts 82°
2026-05-04 13:54 48.34510 11.81174 2582 ft 177 kts 82°
2026-05-04 13:54 48.34652 11.82947 3391 ft 174 kts 82°
2026-05-04 13:54 48.35369 11.86681 4341 ft 209 kts 56°
2026-05-04 13:55 48.36431 11.88322 4777 ft 234 kts 35°
2026-05-04 13:55 48.39857 11.89186 4951 ft 271 kts 343°
2026-05-04 13:55 48.41485 11.87764 4952 ft 275 kts 316°
2026-05-04 13:56 48.42515 11.85363 4954 ft 278 kts 290°
2026-05-04 13:56 48.43041 11.82572 4961 ft 278 kts 290°
2026-05-04 13:56 48.45256 11.77933 4959 ft 275 kts 315°
2026-05-04 13:57 48.46570 11.75835 4960 ft 275 kts 315°
2026-05-04 13:57 48.47897 11.73762 4965 ft 275 kts 316°
2026-05-04 13:58 48.51981 11.67487 6859 ft 284 kts 315°
2026-05-04 13:58 48.54768 11.63227 8574 ft 293 kts 314°
2026-05-04 13:58 48.56197 11.61037 9403 ft 297 kts 313°
2026-05-04 13:59 48.57606 11.58750 10202 ft 301 kts 309°
2026-05-04 13:59 48.58988 11.56318 10789 ft 313 kts 308°
2026-05-04 13:59 48.61929 11.51064 11847 ft 339 kts 308°
2026-05-04 14:00 48.63452 11.48351 12666 ft 342 kts 308°
2026-05-04 14:00 48.66528 11.42875 14246 ft 347 kts 308°
2026-05-04 14:00 48.68088 11.40094 14980 ft 350 kts 308°
2026-05-04 14:01 48.69761 11.37399 15701 ft 355 kts 314°
2026-05-04 14:01 48.71645 11.34972 16405 ft 361 kts 320°
2026-05-04 14:01 48.75819 11.30657 17804 ft 367 kts 323°
2026-05-04 14:02 48.77955 11.28520 18476 ft 370 kts 323°
2026-05-04 14:02 48.80100 11.26361 19136 ft 373 kts 323°
2026-05-04 14:02 48.82260 11.24173 19787 ft 376 kts 322°
2026-05-04 14:02 48.84371 11.21841 20426 ft 377 kts 319°
2026-05-04 14:03 48.86386 11.19291 21071 ft 379 kts 315°
2026-05-04 14:03 48.88331 11.16614 21708 ft 381 kts 314°
2026-05-04 14:03 48.90279 11.13887 22319 ft 384 kts 314°
2026-05-04 14:03 48.92242 11.11135 22909 ft 387 kts 314°
2026-05-04 14:04 48.96223 11.05568 23893 ft 394 kts 314°
2026-05-04 14:04 48.98237 11.02753 23963 ft 394 kts 314°
2026-05-04 14:04 49.00244 10.99942 23967 ft 393 kts 314°
2026-05-04 14:05 49.04254 10.94308 23967 ft 392 kts 314°
2026-05-04 14:05 49.06253 10.91493 23967 ft 392 kts 314°
2026-05-04 14:05 49.08246 10.88685 23971 ft 392 kts 314°
2026-05-04 14:06 49.10243 10.85869 23972 ft 392 kts 314°
2026-05-04 14:06 49.12236 10.83051 23971 ft 392 kts 314°
2026-05-04 14:06 49.14229 10.80230 23974 ft 392 kts 314°
2026-05-04 14:06 49.15992 10.77732 23978 ft 392 kts 314°
2026-05-04 14:07 49.17983 10.74907 23975 ft 392 kts 314°
2026-05-04 14:07 49.19956 10.72047 23974 ft 391 kts 312°
2026-05-04 14:07 49.21863 10.69094 23978 ft 391 kts 311°
2026-05-04 14:07 49.23752 10.66120 23977 ft 391 kts 311°
2026-05-04 14:08 49.25638 10.63139 23982 ft 391 kts 311°
2026-05-04 14:08 49.27525 10.60155 23984 ft 391 kts 311°
2026-05-04 14:08 49.29415 10.57167 23983 ft 391 kts 311°
2026-05-04 14:08 49.31302 10.54182 23983 ft 391 kts 311°
2026-05-04 14:09 49.35045 10.48158 23978 ft 390 kts 308°
2026-05-04 14:09 49.36778 10.44967 23977 ft 389 kts 305°
2026-05-04 14:10 49.39926 10.38257 23977 ft 388 kts 302°
2026-05-04 14:10 49.41469 10.34867 23976 ft 389 kts 301°
2026-05-04 14:10 49.43012 10.31471 23975 ft 388 kts 301°
2026-05-04 14:10 49.44550 10.28083 23867 ft 388 kts 301°
2026-05-04 14:11 49.46085 10.24701 23597 ft 387 kts 301°
2026-05-04 14:11 49.49145 10.17955 23069 ft 384 kts 302°
2026-05-04 14:11 49.50666 10.14594 22584 ft 384 kts 302°
2026-05-04 14:12 49.52186 10.11230 21888 ft 386 kts 302°
2026-05-04 14:12 49.53721 10.07830 21108 ft 390 kts 302°
2026-05-04 14:12 49.56760 10.01096 20271 ft 379 kts 302°
2026-05-04 14:13 49.58249 9.97791 19832 ft 375 kts 302°
2026-05-04 14:13 49.59724 9.94514 19379 ft 372 kts 302°
2026-05-04 14:13 49.61188 9.91260 18925 ft 369 kts 302°
2026-05-04 14:13 49.62636 9.88030 18475 ft 366 kts 302°
2026-05-04 14:14 49.64072 9.84826 18027 ft 363 kts 302°
2026-05-04 14:14 49.66910 9.78479 17141 ft 358 kts 302°
2026-05-04 14:14 49.68314 9.75330 16696 ft 356 kts 302°
2026-05-04 14:15 49.71091 9.69090 15805 ft 352 kts 302°
2026-05-04 14:15 49.73834 9.62914 14920 ft 348 kts 302°
2026-05-04 14:16 49.76548 9.56799 14047 ft 344 kts 302°
2026-05-04 14:16 49.77894 9.53759 13615 ft 342 kts 302°
2026-05-04 14:17 49.80558 9.47725 12757 ft 339 kts 302°
2026-05-04 14:17 49.81881 9.44721 12334 ft 337 kts 302°
2026-05-04 14:17 49.84497 9.38775 11486 ft 333 kts 302°
2026-05-04 14:18 49.85719 9.35759 11058 ft 330 kts 296°
2026-05-04 14:18 49.87335 9.29254 10806 ft 323 kts 284°
2026-05-04 14:19 49.88594 9.22593 10824 ft 321 kts 283°
2026-05-04 14:19 49.89213 9.19304 10519 ft 317 kts 283°
2026-05-04 14:19 49.89824 9.16075 10299 ft 308 kts 284°
2026-05-04 14:19 49.90418 9.12948 10117 ft 298 kts 284°
2026-05-04 14:20 49.90993 9.09915 9909 ft 290 kts 283°
2026-05-04 14:20 49.91557 9.06940 9569 ft 287 kts 283°
2026-05-04 14:20 49.92159 9.03999 9183 ft 288 kts 291°
2026-05-04 14:21 49.95109 9.00050 8416 ft 292 kts 346°
2026-05-04 14:21 49.97121 8.99790 8068 ft 290 kts
2026-05-04 14:21 49.99126 8.99936 7718 ft 288 kts
2026-05-04 14:21 50.01111 9.00153 7380 ft 286 kts
2026-05-04 14:22 50.03081 9.00385 7034 ft 283 kts
2026-05-04 14:22 50.05032 9.00432 6674 ft 280 kts 352°
2026-05-04 14:22 50.06920 8.99841 6453 ft 272 kts 345°
2026-05-04 14:22 50.08721 8.99112 6287 ft 263 kts 344°
2026-05-04 14:23 50.11517 8.96125 5927 ft 243 kts 295°
2026-05-04 14:23 50.12087 8.93721 5780 ft 233 kts 286°
2026-05-04 14:23 50.12520 8.91313 5623 ft 225 kts 284°
2026-05-04 14:24 50.12877 8.88987 5472 ft 217 kts 274°
2026-05-04 14:24 50.12813 8.86692 5307 ft 209 kts 261°
2026-05-04 14:24 50.12572 8.84479 5083 ft 207 kts 258°
2026-05-04 14:24 50.12295 8.82280 4760 ft 210 kts 258°
2026-05-04 14:25 50.11996 8.79985 4244 ft 222 kts 258°
2026-05-04 14:25 50.11702 8.75373 3962 ft 206 kts 290°
2026-05-04 14:25 50.12526 8.73601 3978 ft 207 kts 326°
2026-05-04 14:26 50.13882 8.72914 3983 ft 210 kts
2026-05-04 14:26 50.15257 8.73595 3985 ft 211 kts 38°
2026-05-04 14:26 50.16295 8.75222 3987 ft 212 kts 51°
2026-05-04 14:26 50.17203 8.77039 3982 ft 212 kts 53°
2026-05-04 14:27 50.18082 8.78886 3973 ft 212 kts 54°
2026-05-04 14:27 50.18957 8.80738 3964 ft 212 kts 54°
2026-05-04 14:27 50.19821 8.82604 3962 ft 213 kts 59°
2026-05-04 14:27 50.20255 8.84765 3954 ft 211 kts 94°
2026-05-04 14:28 50.19811 8.86897 3959 ft 209 kts 129°
2026-05-04 14:28 50.18796 8.88513 3964 ft 208 kts 141°
2026-05-04 14:28 50.17677 8.89938 3963 ft 208 kts 143°
2026-05-04 14:28 50.16538 8.91320 3959 ft 208 kts 144°
2026-05-04 14:29 50.14100 8.93569 3945 ft 204 kts 179°
2026-05-04 14:29 50.11803 8.91489 3962 ft 203 kts 241°
2026-05-04 14:30 50.11224 8.89408 3969 ft 213 kts 252°
2026-05-04 14:30 50.10792 8.87269 3941 ft 200 kts 253°
2026-05-04 14:30 50.09956 8.83366 3614 ft 187 kts 250°
2026-05-04 14:31 50.09516 8.81491 3353 ft 183 kts 250°
2026-05-04 14:31 50.08643 8.77884 2872 ft 172 kts 249°
2026-05-04 14:32 50.07829 8.74544 2430 ft 157 kts 249°
2026-05-04 14:32 50.07457 8.73010 2216 ft 145 kts 249°
2026-05-04 14:32 50.07113 8.71589 2030 ft 139 kts 249°
2026-05-04 14:32 50.06774 8.70185 1868 ft 139 kts 249°
2026-05-04 14:33 50.06436 8.68784 1703 ft 138 kts 249°
2026-05-04 14:33 50.06100 8.67384 1530 ft 138 kts 248°
2026-05-04 14:33 50.05763 8.65988 1354 ft 137 kts 249°
2026-05-04 14:33 50.05430 8.64604 1164 ft 137 kts 248°
2026-05-04 14:34 50.05091 8.63227 1002 ft 137 kts 249°
2026-05-04 14:34 50.04774 8.61830 818 ft 137 kts 249°
2026-05-04 14:34 50.04436 8.60439 636 ft 138 kts 248°
2026-05-04 14:34 50.04102 8.59050 460 ft 136 kts 248°
2026-05-04 14:35 50.03774 8.57684 359 ft 122 kts 248°
2026-05-04 14:35 50.03576 8.56864 345 ft 54 kts 250°
2026-05-04 14:35 50.03451 8.56339 342 ft 49 kts 250°
2026-05-04 14:35 50.03342 8.55879 340 ft 39 kts 250°
2026-05-04 14:36 50.03314 8.55485 336 ft 30 kts 280°